TimeCST,TemperatureF,Dew PointF,Humidity,Sea Level PressureIn,VisibilityMPH,Wind Direction,Wind SpeedMPH,Gust SpeedMPH,PrecipitationIn,Events,Conditions,WindDirDegrees,DateUTC
12:15 AM,77.2,73.6,89,29.83,10.0,South,8.1,-,N/A,Rain,Light Rain,180,2013-11-17 06:15:00
12:35 AM,77.0,73.4,89,29.83,10.0,South,6.9,-,N/A,,Mostly Cloudy,180,2013-11-17 06:35:00
12:55 AM,77.0,73.4,89,29.82,10.0,South,9.2,-,N/A,,Mostly Cloudy,180,2013-11-17 06:55:00
1:15 AM,77.0,73.0,88,29.81,10.0,South,10.4,-,N/A,,Mostly Cloudy,180,2013-11-17 07:15:00
1:35 AM,77.4,72.9,86,29.81,10.0,South,10.4,-,N/A,,Mostly Cloudy,190,2013-11-17 07:35:00
1:55 AM,77.5,72.7,85,29.81,10.0,South,10.4,-,N/A,,Mostly Cloudy,190,2013-11-17 07:55:00
2:15 AM,77.9,72.5,83,29.81,10.0,South,9.2,-,N/A,,Mostly Cloudy,190,2013-11-17 08:15:00
2:35 AM,77.9,72.5,83,29.82,10.0,SSW,8.1,-,N/A,,Overcast,200,2013-11-17 08:35:00
2:55 AM,77.9,72.5,83,29.82,10.0,SSW,5.8,-,N/A,,Overcast,200,2013-11-17 08:55:00
3:15 AM,77.9,72.7,84,29.82,10.0,SSW,5.8,-,N/A,,Overcast,210,2013-11-17 09:15:00
3:35 AM,77.4,72.7,85,29.82,10.0,South,8.1,-,N/A,,Overcast,190,2013-11-17 09:35:00
3:55 AM,77.5,72.7,85,29.82,10.0,South,10.4,-,N/A,,Mostly Cloudy,180,2013-11-17 09:55:00
4:15 AM,77.7,72.5,84,29.82,10.0,South,9.2,-,N/A,,Overcast,180,2013-11-17 10:15:00
4:35 AM,77.4,72.5,85,29.81,10.0,South,8.1,-,N/A,,Mostly Cloudy,180,2013-11-17 10:35:00
4:55 AM,77.0,72.1,85,29.82,10.0,South,6.9,-,N/A,,Mostly Cloudy,190,2013-11-17 10:55:00
5:15 AM,77.2,72.0,84,29.82,10.0,SSW,6.9,-,N/A,,Overcast,200,2013-11-17 11:15:00
5:35 AM,77.2,71.8,83,29.83,10.0,SSW,6.9,-,N/A,,Overcast,210,2013-11-17 11:35:00
5:55 AM,77.0,71.6,83,29.83,10.0,SSW,5.8,-,N/A,,Mostly Cloudy,200,2013-11-17 11:55:00
6:15 AM,77.0,71.1,82,29.83,10.0,SSW,9.2,-,N/A,,Mostly Cloudy,200,2013-11-17 12:15:00
6:35 AM,77.0,70.9,81,29.83,10.0,South,9.2,-,N/A,,Mostly Cloudy,190,2013-11-17 12:35:00
6:55 AM,76.5,70.7,82,29.84,10.0,SSW,8.1,-,N/A,,Mostly Cloudy,210,2013-11-17 12:55:00
7:15 AM,76.1,70.7,83,29.85,10.0,SSW,6.9,-,N/A,,Mostly Cloudy,200,2013-11-17 13:15:00
7:35 AM,76.5,70.9,83,29.86,10.0,SSW,6.9,-,N/A,,Mostly Cloudy,200,2013-11-17 13:35:00
7:55 AM,76.5,71.1,83,29.87,10.0,SSW,8.1,-,N/A,,Mostly Cloudy,200,2013-11-17 13:55:00
8:15 AM,77.0,71.1,82,29.87,10.0,SSW,9.2,-,N/A,,Overcast,210,2013-11-17 14:15:00
8:35 AM,77.4,71.1,81,29.88,10.0,SSW,8.1,17.3,N/A,,Overcast,200,2013-11-17 14:35:00
8:55 AM,78.3,71.1,78,29.88,10.0,South,12.7,-,N/A,,Overcast,190,2013-11-17 14:55:00
9:15 AM,79.9,71.1,74,29.88,10.0,South,15.0,20.7,N/A,,Mostly Cloudy,190,2013-11-17 15:15:00
9:35 AM,80.4,70.9,73,29.88,10.0,South,11.5,17.3,N/A,,Scattered Clouds,190,2013-11-17 15:35:00
9:55 AM,80.2,70.2,71,29.89,10.0,SSW,17.3,23.0,N/A,,Scattered Clouds,200,2013-11-17 15:55:00
10:15 AM,82.8,71.8,69,29.90,10.0,SSW,16.1,21.9,N/A,,Scattered Clouds,210,2013-11-17 16:15:00
10:35 AM,83.3,70.7,66,29.88,10.0,South,15.0,19.6,N/A,,Scattered Clouds,190,2013-11-17 16:35:00
10:55 AM,82.8,70.7,67,29.89,10.0,SW,13.8,-,N/A,,Scattered Clouds,220,2013-11-17 16:55:00
11:15 AM,84.6,71.1,64,29.88,10.0,SW,9.2,16.1,N/A,,Scattered Clouds,220,2013-11-17 17:15:00
11:35 AM,83.8,70.9,65,29.88,10.0,SW,10.4,-,N/A,,Mostly Cloudy,220,2013-11-17 17:35:00
11:55 AM,84.9,70.9,63,29.87,10.0,SSW,11.5,19.6,N/A,,Mostly Cloudy,210,2013-11-17 17:55:00
12:15 PM,84.6,70.9,63,29.86,10.0,WSW,9.2,-,N/A,,Mostly Cloudy,240,2013-11-17 18:15:00
12:35 PM,85.6,70.9,61,29.85,10.0,SW,8.1,-,N/A,,Mostly Cloudy,230,2013-11-17 18:35:00
12:55 PM,86.5,71.1,60,29.84,10.0,SSW,10.4,17.3,N/A,,Scattered Clouds,210,2013-11-17 18:55:00
1:15 PM,87.6,71.4,58,29.84,10.0,SW,9.2,-,N/A,,Scattered Clouds,230,2013-11-17 19:15:00
1:35 PM,87.3,70.7,58,29.84,10.0,SSW,8.1,-,N/A,,Scattered Clouds,210,2013-11-17 19:35:00
1:55 PM,87.8,71.2,58,29.83,10.0,SSW,8.1,-,N/A,,Scattered Clouds,200,2013-11-17 19:55:00
2:15 PM,87.6,70.5,57,29.83,10.0,SW,8.1,-,N/A,,Scattered Clouds,230,2013-11-17 20:15:00
2:35 PM,87.8,70.0,55,29.83,10.0,SW,5.8,-,N/A,,Scattered Clouds,230,2013-11-17 20:35:00
2:55 PM,86.9,70.2,57,29.83,10.0,West,4.6,-,N/A,,Mostly Cloudy,270,2013-11-17 20:55:00
3:15 PM,87.3,69.6,56,29.83,10.0,West,4.6,-,N/A,,Scattered Clouds,270,2013-11-17 21:15:00
3:35 PM,88.0,68.0,51,29.83,10.0,WNW,3.5,-,N/A,,Scattered Clouds,300,2013-11-17 21:35:00
3:55 PM,87.3,68.9,54,29.83,10.0,NNW,4.6,-,N/A,,Clear,330,2013-11-17 21:55:00
4:15 PM,86.9,68.9,55,29.84,10.0,WNW,3.5,-,N/A,,Clear,300,2013-11-17 22:15:00
4:35 PM,86.2,68.7,56,29.84,10.0,NW,3.5,-,N/A,,Clear,310,2013-11-17 22:35:00
4:55 PM,85.3,68.9,58,29.85,10.0,Calm,Calm,-,N/A,,Clear,0,2013-11-17 22:55:00
5:15 PM,84.0,69.3,61,29.85,10.0,Calm,Calm,-,N/A,,Clear,0,2013-11-17 23:15:00
5:35 PM,82.2,69.3,65,29.86,10.0,Calm,Calm,-,N/A,,Clear,0,2013-11-17 23:35:00
5:55 PM,81.0,69.1,67,29.87,10.0,Calm,Calm,-,N/A,,Clear,0,2013-11-17 23:55:00
6:15 PM,78.8,69.1,72,29.87,10.0,Calm,Calm,-,N/A,,Clear,0,2013-11-18 00:15:00
6:35 PM,77.0,69.3,77,29.89,10.0,Calm,Calm,-,N/A,,Clear,0,2013-11-18 00:35:00
6:55 PM,76.3,70.0,81,29.90,10.0,Calm,Calm,-,N/A,,Clear,0,2013-11-18 00:55:00
7:15 PM,77.0,70.0,79,29.90,10.0,SSE,3.5,-,N/A,,Clear,150,2013-11-18 01:15:00
7:35 PM,77.7,70.7,79,29.90,10.0,SE,3.5,-,N/A,,Clear,140,2013-11-18 01:35:00
7:55 PM,77.9,71.1,79,29.90,10.0,SSE,4.6,-,N/A,,Clear,160,2013-11-18 01:55:00
8:15 PM,77.0,71.2,82,29.91,10.0,Calm,Calm,-,N/A,,Clear,0,2013-11-18 02:15:00
8:35 PM,76.3,71.2,84,29.92,10.0,Calm,Calm,-,N/A,,Clear,0,2013-11-18 02:35:00
8:55 PM,76.3,71.6,85,29.92,10.0,Calm,Calm,-,N/A,,Clear,0,2013-11-18 02:55:00
9:15 PM,75.6,71.1,86,29.93,10.0,Calm,Calm,-,N/A,,Clear,0,2013-11-18 03:15:00
9:35 PM,75.2,70.7,86,29.93,10.0,SSE,3.5,-,N/A,,Clear,150,2013-11-18 03:35:00
9:55 PM,74.7,70.7,87,29.94,10.0,Calm,Calm,-,N/A,,Clear,0,2013-11-18 03:55:00
10:15 PM,74.5,70.7,88,29.94,10.0,Calm,Calm,-,N/A,,Clear,0,2013-11-18 04:15:00
10:35 PM,73.9,70.7,90,29.95,7.0,Calm,Calm,-,N/A,,Clear,0,2013-11-18 04:35:00
10:55 PM,73.6,70.3,90,29.95,7.0,Calm,Calm,-,N/A,,Clear,0,2013-11-18 04:55:00
11:15 PM,73.4,70.2,90,29.95,5.0,Calm,Calm,-,N/A,,Clear,0,2013-11-18 05:15:00
11:35 PM,73.4,70.7,91,29.95,3.0,Calm,Calm,-,N/A,,Mist,0,2013-11-18 05:35:00
11:55 PM,73.4,70.7,91,29.95,3.0,Calm,Calm,-,N/A,,Mist,0,2013-11-18 05:55:00